Regional Weather Roundup
Issued by NWS Wakefield, VA

Home | Current Version | Previous Version | Text Only | Print | Product List | Glossary Off
Versions: 1 2 3 4 5 6 7 8 9 10 11 12 13 14 15 16 17 18 19 20 21 22 23 24 25 26 27 28 29 30 31 32 33 34 35 36 37 38 39 40 41 42 43 44 45 46 47 48 49 50

000
ASUS41 KAKQ 292115
RWRAKQ

REGIONAL WEATHER ROUNDUP
NATIONAL WEATHER SERVICE WAKEFIELD VA
500 PM EDT MON JUN 29 2015

Note: "fair" indicates few or no clouds below 12,000 feet with no
significant weather and/or obstructions to visibility. * = Denotes
station may not report precipitation (e.g., rain,snow,etc.),
thunder or fog.

VAZ042-051-052>054-056-292200-
NORTHERN VIRGINIA

CITY           SKY/WX    TMP DP  RH WIND       PRES   REMARKS
WASH NATIONAL  MOSUNNY   83  53  35 S10       29.94F
DULLES         MOSUNNY   80  53  39 S7        29.93F
FORT BELVOIR   SUNNY     81  53  38 VRB6      29.94F
QUANTICO       MOSUNNY   82  55  39 S12       29.94F
FREDERICKSBRG* SUNNY     84  54  35 SW12      29.94S
STAFFORD*      SUNNY     80  53  39 S9        29.98F
WARRENTON      PTSUNNY   82  60  46 S9        29.93F
CULPEPER*      SUNNY     80  55  41 S9        29.94F
MANASSAS*      SUNNY     82  54  36 SW7         N/A
LEESBURG*      SUNNY     82  55  39 S8        29.94F
WINCHESTER     SUNNY     82  55  39 S8        29.93F
FRONT ROYAL*   FAIR      79  55  44 SE3       29.92F
LURAY*         FAIR      82  57  42 S7        29.93F
$$

VAZ048-049-060>072-079>083-292200-
CENTRAL AND SOUTH CENTRAL VIRGINIA

CITY           SKY/WX    TMP DP  RH WIND       PRES   REMARKS
RICHMOND       MOSUNNY   84  57  39 VRB5      29.95S
CHESTERFIELD*  NOT AVBL
PETERSBURG*    MOSUNNY   83  67  56 S6        29.95F
HANOVER        MOSUNNY   82  56  40 SW13      29.96F
TAPPAHANNOCK*  SUNNY     83  51  33 S7        29.96S
QUINTON*       FAIR      82  59  44 S6        29.95S
CHARLOTTSVILLE MOSUNNY   80  57  45 S14G20    29.94F
GORDONSVILLE*  MOCLDY    81  57  44 SW8G16    29.94F
ORANGE*        MOSUNNY   81  55  41 S7        29.96F
LOUISA*        MOSUNNY   81  57  44 S5        29.94F
BUMPASS*       FAIR      81  56  42 S3        29.95S
FARMVILLE*     SUNNY     84  55  37 S6        29.93F
CREWE*         FAIR      82  61  49 S6        29.95S
FORT PICKETT*  FAIR      82  62  49 S8        29.95F
CHASE CITY*    FAIR      85  63  47 CALM      29.94F
CLARKSVILLE*   MOCLDY    84  64  51 S3        29.94S
SOUTH HILL*    SUNNY     82  62  49 S7        30.00F
LAWRENCEVILLE* NOT AVBL
EMPORIA*       SUNNY     82  59  44 SE3       29.95F
$$

VAZ088>098-292200-
SOUTHEAST VIRGINIA

CITY           SKY/WX    TMP DP  RH WIND       PRES   REMARKS
NORFOLK        MOSUNNY   80  61  52 NE9       29.95F
VIRGINIA BEACH MOSUNNY   83  62  49 E12G17    29.95S
NORFOLK NAVAL  MOSUNNY   80  61  52 NE12      29.97F
WEST POINT*    SUNNY     85  55  36 SW5       29.96F
SALUDA*        FAIR      81  60  49 S5        29.95F
NEWPORT NEWS   SUNNY     83  61  47 E6        29.95F
LANGLEY AFB    SUNNY     82  62  51 SE9       29.94F
FORT EUSTIS    SUNNY     83  63  52 VRB3      29.93F
WILLIAMSBURG*  SUNNY     88  66  48 SE3       29.96S
HR EXEC AP*    FAIR      84  64  51 NE5       29.96F
FRANKLIN*      MOSUNNY   85  61  43 W7        29.95S
WAKEFIELD      SUNNY     85  61  44 SW5       29.94F
$$

VAZ020-022-025-037-045-292200-
WEST CENTRAL AND SOUTHWEST VIRGINIA

CITY           SKY/WX    TMP DP  RH WIND       PRES   REMARKS
STAUNTON*      PTSUNNY   79  56  44 S8        29.96F
WAYNESBORO*    CLOUDY    77  58  52 S9        29.96F
HOT SPRINGS VA CLOUDY    66  56  71 S9        30.04S
LYNCHBURG      PTSUNNY   80  58  46 S14       29.96F
DANVILLE       PTSUNNY   83  60  45 VRB3      29.94F
SOUTH BOSTON*  MOCLDY    80  60  50 MISG      29.94F
MARTINSVILLE   PTSUNNY   84  55  37 CALM      29.97F
ROANOKE        PTSUNNY   77  56  48 S12       29.97F
BLACKSBURG     MOSUNNY   77  59  53 SW6       30.01F
DUBLIN*        PTSUNNY   76  57  51 S7        30.00S
MARION*        CLOUDY    73  55  53 SW7       30.03F
HILLSVILLE*    CLOUDY    71  56  60 S6        30.04F
RICHLANDS*     FAIR      73  59  62 S9G21     29.99F
WISE*          MOSUNNY   73  59  60 S14G22    29.98F
ABINGDON*      CLOUDY    77  60  56 SW9       29.98F
$$

MDZ021>025-VAZ099-100-292200-
SOUTHERN MARYLAND AND THE DELMARVA PENINSULA

CITY           SKY/WX    TMP DP  RH WIND       PRES   REMARKS
PATUXENT RIVER MOSUNNY   80  54  40 CALM      29.94F
BAY BRIDGE APT   N/A     81  52  36 S8        29.94S
LEONARDTOWN    SUNNY     79  52  38 SW6       29.96F
DOVER          SUNNY     81  60  49 W12       29.92S
GEORGETOWN     SUNNY     80  53  39 W12       29.95S
EASTON         MOSUNNY   82  57  42 SW7       29.98F
CAMBRIDGE      SUNNY     81  52  36 S9        29.94F
SALISBURY      SUNNY     79  54  41 W9        29.95F
OCEAN CITY     NOT AVBL
WALLOPS ISLAND SUNNY     79  61  53 S9        29.97S
ACCOMACK*      SUNNY     81  59  47 SW6       29.96S
$$

NCZ012>017-030>032-292200-
NORTH CENTRAL AND EASTERN NORTH CAROLINA

CITY           SKY/WX    TMP DP  RH WIND       PRES   REMARKS
ROANOKE RAPIDS FAIR      82  63  51 S7        29.94F
RALEIGH        MOSUNNY   86  61  42 SE7       29.94F
ELIZABETH CITY PTSUNNY   81  66  60 E10       29.96S
AHOSKIE*       MOSUNNY   81  66  59 CALM      29.94S
EDENTON*         N/A     83  69  62 SE8       29.94F
CURRITUCK*     PTSUNNY   81  61  50 E6        29.97S
KILL DEVIL HLS PTSUNNY   85  67  55 SE9       29.95S
MANTEO         PTSUNNY   81  67  61 SE7       29.96S
CAPE HATTERAS  PTSUNNY   79  70  74 CALM      29.96S
TARBORO*         N/A     89  59  36 CALM      29.93F
GOLDSBORO      MOSUNNY   87  70  57 S7        29.91S
WASHINGTON     MOSUNNY   83  65  54 S6        29.94F
GREENVILLE     PTSUNNY   82  68  61 E7        29.95S
NEW BERN       MOSUNNY   85  66  53 SE6       29.95F
WILMINGTON     MOSUNNY   83  72  69 S6        29.93F
$$

VAZ048-292200-
ELSEWHERE

CITY           SKY/WX    TMP DP  RH WIND       PRES   REMARKS
HARRISBURG PA  MOSUNNY   80  58  46 VRB5      29.90F
BALTIMORE      MOSUNNY   81  55  40 W5        29.92F
ANNAPOLIS      SUNNY     79  57  46 S10G18    29.93F
ANDREWS AFB    SUNNY     81  59  47 SW8       29.94F
PHILADELPHIA   MOSUNNY   80  54  40 W14G20    29.93S
HENDERSON NC   SUNNY     83  54  36 S6        29.95S
GREENSBORO     PTSUNNY   84  55  36 S8        29.94F
ROCKY MOUNT    MOSUNNY   87  61  41 CALM      29.93F
$$

VAZ100-292200-
MARINE

STATION/POSITION TIME  TEMP    WIND        PRES    WAVE   SWELL
                       AIR SEA DIR/SP/G            HT/PER HT/PER
                 (UTC) (F)     (DEG/KT/KT) (MB)    (FT/S) (FT/S)
BRANDYWINE LGT   2000   76 74  290/  9/ 10 1014.1F
CAPE MAY NJ      2000   77 78  290/  4/  6 1013.7F
LEWES DE         2000   80 72  270/ 11/ 18 1013.8F
15NM E FENWICK I 2050   73 72              1013.8F   4/ 9
OCEAN-CITY-INLET 2000   76 76  190/ 11/ 16 1014.1F
WACHAPREAGUE VA  2000   78 81  190/  6/ 10 1014.9F
THOMAS POINT MD  2000          170/ 14       N/A
GOOSES REEF MD   2100   80 78  230/ 10/ 14 1015.0F
COVE POINT MD    2000   79     260/  8/ 13 1014.9F
SOLOMONS ISLAND  2000      79                N/A
BISHOPS HEAD MD  2000   77     190/  7/ 10 1014.4F
PINEY POINT MD   2000          160/ 12/ 12   N/A
CAMBRIDGE MD     2000   80 79  220/  8/ 11 1014.0F
LEWISETTA VA     2000   77 79  110/  7/ 11 1014.0F
RAPPAHANNOCK LGT 2000          190/  2/  3 1015.3F
STINGRAY PT      2100   79 81  180/  6/  8 1014.4F   1
YORK RVR RNG VA  2000   77     120/  8/ 10 1014.0F
YORKTOWN VA      2000   78 81   60/  7/  8 1014.2F
JAMESTOWN VA     2100   82 84  210/  6/ 12   N/A
DOMINION TERM VA 2000   78      90/  8/ 11 1014.5F
KIPTOPEKE VA     2000      83  200/  5/  6   N/A
CHES BAY BRIDGE  2000   76 77   60/ 10/ 12 1014.3F
CAPE HENRY VA    2000   76      90/  9/ 11 1013.1F
CHESAPEAKE LGHT  2000   75     130/  6/  7 1015.5F
WILLOUBY STN VA  2000   76      70/  7/  8 1015.5F
CAPE HENRY BUOY  2028      79                N/A     3/ 8
1ST LANDING BUOY 2100      79              1014.2F   2/ 4
CAPE CHARLES BUO 2026      79                N/A     2/ 8   2/ 8
OFFSHORE WE BUOY 2011      81                N/A     3/ 7   3/ 7
64NM E OF VA BCH 2050   77 78  140/  2/  4 1014.7F   4/ 8   3/ 8
DUCK PIER NC     2000   78 69  100/  8/ 10 1013.9F
44100 DUCK FRF   2024      77                N/A     3/ 8
44056 DUCK FRF   2011      75                N/A     2/ 8
OREGON INLET NC  2000   78 77   70/  7/  9 1014.6F
HATTERAS NC      2000   82 80  180/  3/  6 1014.3F
DIAMOND SHLS NC  2050   80 81  230/  8/ 10 1014.0F   4/ 8   3/ 8
CAPE LOOKOUT NC  2100   81     200/  9/ 12 1013.7F
$$


USA.gov is the U.S. government's official web portal to all federal, state and local government web resources and services.